******************************************************************************* JPL/HORIZONS (2018 AG37) 2025-Dec-12 17:58:26 Rec #:50337323 (+COV) Soln.date: 2021-Aug-24_14:00:08 # obs: 11 (2018-2020) IAU76/J2000 helio. ecliptic osc. elements (au, days, deg., period=Julian yrs): EPOCH= 2458540.5 ! 2019-Feb-26.00 (TDB) Residual RMS= .095177 EC= .6554035492377904 QR= 27.62543076294888 TP= 2584577.1785244695 OM= 68.35744871479042 W= 231.855396298314 IN= 18.6751189327218 A= 80.16748489963973 MA= 186.9372360378807 ADIST= 132.7095390363306 PER= 717.80353 N= .001373114 ANGMOM= .116328978 DAN= 76.83454 DDN= 32.55335 L= 298.698525 B= -14.5854728 MOID= 26.64319992 TP= 2364-Mar-25.6785244695 Asteroid physical parameters (km, seconds, rotational period in hours): GM= n.a. RAD= n.a. ROTPER= n.a. H= 4.22 G= .150 B-V= n.a. ALBEDO= n.a. STYP= n.a. ASTEROID comments: 1: soln ref.= JPL#5, OCC=9 2: source=ORB ******************************************************************************* ******************************************************************************* Ephemeris / WWW_USER Fri Dec 12 17:58:26 2025 Pasadena, USA / Horizons ******************************************************************************* Target body name: (2018 AG37) {source: JPL#5} Center body name: Earth (399) {source: DE441} Center-site name: GEOCENTRIC ******************************************************************************* Start time : A.D. 1990-Jan-01 00:00:00.0000 UT Stop time : A.D. 2030-Jan-01 00:00:00.0000 UT Step-size : 1 calendar month ******************************************************************************* Target pole/equ : undefined Target radii : undefined Center geodetic : 0.0, 0.0, -6378.137 {E-lon(deg),Lat(deg),Alt(km)} Center cylindric: 0.0, 0.0, 0.0 {E-lon(deg),Dxy(km),Dz(km)} Center pole/equ : ITRF93 {East-longitude positive} Center radii : 6378.137, 6378.137, 6356.752 km {Equator_a, b, pole_c} Target primary : Sun Vis. interferer : MOON (R_eq= 1737.400) km {source: DE441} Rel. light bend : Sun {source: DE441} Rel. lght bnd GM: 1.3271E+11 km^3/s^2 Small-body perts: Yes {source: SB441-N16} Atmos refraction: NO (AIRLESS) RA format : HMS Time format : CAL Calendar mode : Mixed Julian/Gregorian EOP file : eop.251212.p260310 EOP coverage : DATA-BASED 1962-JAN-20 TO 2025-DEC-12. PREDICTS-> 2026-MAR-09 Units conversion: 1 au= 149597870.700 km, c= 299792.458 km/s, 1 day= 86400.0 s Table cut-offs 1: Elevation (-90.0deg=NO ),Airmass (>38.000=NO), Daylight (NO ) Table cut-offs 2: Solar elongation ( 0.0,180.0=NO ),Local Hour Angle( 0.0=NO ) Table cut-offs 3: RA/DEC angular rate ( 0.0=NO ) ******************************************************************************* Initial IAU76/J2000 heliocentric ecliptic osculating elements (au, days, deg.): EPOCH= 2458540.5 ! 2019-Feb-26.00 (TDB) Residual RMS= .095177 EC= .6554035492377904 QR= 27.62543076294888 TP= 2584577.1785244695 OM= 68.35744871479042 W= 231.855396298314 IN= 18.6751189327218 Equivalent ICRF heliocentric cartesian coordinates (au, au/d): X=-6.526499614729026E+01 Y= 8.748022080240116E+01 Z= 7.524773290340418E+01 VX=-6.903488516048638E-04 VY=-5.401651857811599E-04 VZ=-6.885450333508718E-05 Asteroid physical parameters (km, seconds, rotational period in hours): GM= n.a. RAD= n.a. ROTPER= n.a. H= 4.22 G= .150 B-V= n.a. ALBEDO= n.a. STYP= n.a. ******************************************************************************* Date__(UT)__HR:MN r rdot ************************************************** $$SOE 1990-Jan-01 00:00 132.4906391901 0.1191563 1990-Feb-01 00:00 132.4927616714 0.1179505 1990-Mar-01 00:00 132.4946605049 0.1169087 1990-Apr-01 00:00 132.4967436594 0.1158225 1990-May-01 00:00 132.4987414516 0.1148194 1990-Jun-01 00:00 132.5007882314 0.1138429 1990-Jul-01 00:00 132.5027523908 0.1128805 1990-Aug-01 00:00 132.5047639217 0.1118185 1990-Sep-01 00:00 132.5067562903 0.1107290 1990-Oct-01 00:00 132.5086656975 0.1096508 1990-Nov-01 00:00 132.5106191382 0.1085535 1990-Dec-01 00:00 132.5124913656 0.1075465 1991-Jan-01 00:00 132.5144077416 0.1065061 1991-Feb-01 00:00 132.5163051638 0.1054485 1991-Mar-01 00:00 132.5180024906 0.1044744 1991-Apr-01 00:00 132.5198628559 0.1033471 1991-May-01 00:00 132.5216439001 0.1022695 1991-Jun-01 00:00 132.5234653566 0.1012312 1991-Jul-01 00:00 132.5252109902 0.1002847 1991-Aug-01 00:00 132.5269982990 0.0993822 1991-Sep-01 00:00 132.5287698794 0.0985045 1991-Oct-01 00:00 132.5304689267 0.0975885 1991-Nov-01 00:00 132.5322074685 0.0965922 1991-Dec-01 00:00 132.5338725654 0.0955895 1992-Jan-01 00:00 132.5355745636 0.0945311 1992-Feb-01 00:00 132.5372581542 0.0935525 1992-Mar-01 00:00 132.5388178666 0.0927112 1992-Apr-01 00:00 132.5404697444 0.0918383 1992-May-01 00:00 132.5420538045 0.0910292 1992-Jun-01 00:00 132.5436759012 0.0901768 1992-Jul-01 00:00 132.5452307474 0.0893120 1992-Aug-01 00:00 132.5468220438 0.0884555 1992-Sep-01 00:00 132.5483985362 0.0876461 1992-Oct-01 00:00 132.5499107203 0.0869060 1992-Nov-01 00:00 132.5514604334 0.0861944 1992-Dec-01 00:00 132.5529479392 0.0854807 1993-Jan-01 00:00 132.5544713809 0.0846860 1993-Feb-01 00:00 132.5559802753 0.0838642 1993-Mar-01 00:00 132.5573303029 0.0831052 1993-Apr-01 00:00 132.5588108908 0.0823201 1993-May-01 00:00 132.5602313056 0.0816724 1993-Jun-01 00:00 132.5616880630 0.0810753 1993-Jul-01 00:00 132.5630881100 0.0805484 1993-Aug-01 00:00 132.5645254779 0.0800121 1993-Sep-01 00:00 132.5659528076 0.0794093 1993-Oct-01 00:00 132.5673235329 0.0788018 1993-Nov-01 00:00 132.5687289942 0.0781874 1993-Dec-01 00:00 132.5700787533 0.0776083 1994-Jan-01 00:00 132.5714635287 0.0770850 1994-Feb-01 00:00 132.5728393809 0.0766097 1994-Mar-01 00:00 132.5740745872 0.0761606 1994-Apr-01 00:00 132.5754336606 0.0756691 1994-May-01 00:00 132.5767404637 0.0751887 1994-Jun-01 00:00 132.5780819684 0.0746887 1994-Jul-01 00:00 132.5793724185 0.0742915 1994-Aug-01 00:00 132.5806995379 0.0739672 1994-Sep-01 00:00 132.5820212246 0.0736781 1994-Oct-01 00:00 132.5832957290 0.0734250 1994-Nov-01 00:00 132.5846078180 0.0731136 1994-Dec-01 00:00 132.5858714666 0.0727337 1995-Jan-01 00:00 132.5871701270 0.0723286 1995-Feb-01 00:00 132.5884616032 0.0719394 1995-Mar-01 00:00 132.5896223994 0.0716469 1995-Apr-01 00:00 132.5909029708 0.0714287 1995-May-01 00:00 132.5921390474 0.0712635 1995-Jun-01 00:00 132.5934133508 0.0711011 1995-Jul-01 00:00 132.5946438560 0.0709405 1995-Aug-01 00:00 132.5959121950 0.0707318 1995-Sep-01 00:00 132.5971767682 0.0705335 1995-Oct-01 00:00 132.5983977065 0.0703985 1995-Nov-01 00:00 132.5996572370 0.0702868 1995-Dec-01 00:00 132.6008744875 0.0702133 1996-Jan-01 00:00 132.6021309816 0.0701327 1996-Feb-01 00:00 132.6033853793 0.0699797 1996-Mar-01 00:00 132.6045560479 0.0698167 1996-Apr-01 00:00 132.6058044590 0.0696558 1996-May-01 00:00 132.6070100367 0.0695294 1996-Jun-01 00:00 132.6082544323 0.0695076 1996-Jul-01 00:00 132.6094591168 0.0695631 1996-Aug-01 00:00 132.6107050321 0.0696154 1996-Sep-01 00:00 132.6119519015 0.0696553 1996-Oct-01 00:00 132.6131587954 0.0696311 1996-Nov-01 00:00 132.6144046689 0.0695264 1996-Dec-01 00:00 132.6156085951 0.0694356 1997-Jan-01 00:00 132.6168512422 0.0693713 1997-Feb-01 00:00 132.6180928736 0.0693406 1997-Mar-01 00:00 132.6192142746 0.0693590 1997-Apr-01 00:00 132.6204561471 0.0693669 1997-May-01 00:00 132.6216576119 0.0693315 1997-Jun-01 00:00 132.6228984106 0.0692841 1997-Jul-01 00:00 132.6240983281 0.0692251 1997-Aug-01 00:00 132.6253373566 0.0691980 1997-Sep-01 00:00 132.6265766224 0.0692389 1997-Oct-01 00:00 132.6277767897 0.0692769 1997-Nov-01 00:00 132.6290173682 0.0692854 1997-Dec-01 00:00 132.6302175887 0.0692309 1998-Jan-01 00:00 132.6314558264 0.0690616 1998-Feb-01 00:00 132.6326904228 0.0688513 1998-Mar-01 00:00 132.6338023654 0.0686808 1998-Apr-01 00:00 132.6350304328 0.0685196 1998-May-01 00:00 132.6362166816 0.0684330 1998-Jun-01 00:00 132.6374412784 0.0683729 1998-Jul-01 00:00 132.6386249579 0.0682556 1998-Aug-01 00:00 132.6398455484 0.0680833 1998-Sep-01 00:00 132.6410625403 0.0678458 1998-Oct-01 00:00 132.6422356280 0.0675527 1998-Nov-01 00:00 132.6434426499 0.0672715 1998-Dec-01 00:00 132.6446060890 0.0670101 1999-Jan-01 00:00 132.6458031509 0.0667015 1999-Feb-01 00:00 132.6469944500 0.0663654 1999-Mar-01 00:00 132.6480647593 0.0659967 1999-Apr-01 00:00 132.6492418930 0.0655043 1999-May-01 00:00 132.6503725665 0.0650241 1999-Jun-01 00:00 132.6515323676 0.0645446 1999-Jul-01 00:00 132.6526467776 0.0641114 1999-Aug-01 00:00 132.6537910074 0.0637100 1999-Sep-01 00:00 132.6549279195 0.0632674 1999-Oct-01 00:00 132.6560198537 0.0627542 1999-Nov-01 00:00 132.6571381028 0.0621331 1999-Dec-01 00:00 132.6582087786 0.0614257 2000-Jan-01 00:00 132.6593017112 0.0606594 2000-Feb-01 00:00 132.6603811114 0.0599226 2000-Mar-01 00:00 132.6613790085 0.0592396 2000-Apr-01 00:00 132.6624331597 0.0585287 2000-May-01 00:00 132.6634411283 0.0578255 2000-Jun-01 00:00 132.6644692237 0.0570131 2000-Jul-01 00:00 132.6654498609 0.0561838 2000-Aug-01 00:00 132.6664479630 0.0553106 2000-Sep-01 00:00 132.6674303001 0.0544212 2000-Oct-01 00:00 132.6683661422 0.0535996 2000-Nov-01 00:00 132.6693183266 0.0527487 2000-Dec-01 00:00 132.6702246250 0.0518463 2001-Jan-01 00:00 132.6711441189 0.0508486 2001-Feb-01 00:00 132.6720449722 0.0497671 2001-Mar-01 00:00 132.6728413648 0.0487342 2001-Apr-01 00:00 132.6737039078 0.0476363 2001-May-01 00:00 132.6745204615 0.0466341 2001-Jun-01 00:00 132.6753462802 0.0456354 2001-Jul-01 00:00 132.6761288849 0.0447055 2001-Aug-01 00:00 132.6769204366 0.0436993 2001-Sep-01 00:00 132.6776931399 0.0426062 2001-Oct-01 00:00 132.6784219174 0.0415038 2001-Nov-01 00:00 132.6791545910 0.0403239 2001-Dec-01 00:00 132.6798434268 0.0391917 2002-Jan-01 00:00 132.6805350530 0.0380693 2002-Feb-01 00:00 132.6812066175 0.0369397 2002-Mar-01 00:00 132.6817956061 0.0359065 2002-Apr-01 00:00 132.6824280303 0.0347393 2002-May-01 00:00 132.6830197286 0.0335565 2002-Jun-01 00:00 132.6836095518 0.0323456 2002-Jul-01 00:00 132.6841602375 0.0312347 2002-Aug-01 00:00 132.6847095116 0.0301282 2002-Sep-01 00:00 132.6852394832 0.0290774 2002-Oct-01 00:00 132.6857345725 0.0280601 2002-Nov-01 00:00 132.6862269427 0.0269205 2002-Dec-01 00:00 132.6866834463 0.0257608 2003-Jan-01 00:00 132.6871336461 0.0245220 2003-Feb-01 00:00 132.6875613998 0.0232701 2003-Mar-01 00:00 132.6879290661 0.0222165 2003-Apr-01 00:00 132.6883169895 0.0211302 2003-May-01 00:00 132.6886741036 0.0201029 2003-Jun-01 00:00 132.6890247510 0.0190698 2003-Jul-01 00:00 132.6893463360 0.0180428 2003-Aug-01 00:00 132.6896593904 0.0169295 2003-Sep-01 00:00 132.6899527173 0.0158418 2003-Oct-01 00:00 132.6902183704 0.0148217 2003-Nov-01 00:00 132.6904745097 0.0138008 2003-Dec-01 00:00 132.6907054373 0.0128549 2004-Jan-01 00:00 132.6909267124 0.0118470 2004-Feb-01 00:00 132.6911293629 0.0107878 2004-Mar-01 00:00 132.6913016163 0.0097804 2004-Apr-01 00:00 132.6914670125 0.0086945 2004-May-01 00:00 132.6916089189 0.0077062 2004-Jun-01 00:00 132.6917385819 0.0067969 2004-Jul-01 00:00 132.6918491954 0.0059740 2004-Aug-01 00:00 132.6919488516 0.0051631 2004-Sep-01 00:00 132.6920340112 0.0043423 2004-Oct-01 00:00 132.6921018157 0.0034699 2004-Nov-01 00:00 132.6921556295 0.0025404 2004-Dec-01 00:00 132.6921919261 0.0016534 2005-Jan-01 00:00 132.6922134379 0.0007584 2005-Feb-01 00:00 132.6922196523 -0.0000508 2005-Mar-01 00:00 132.6922132878 -0.0007328 2005-Apr-01 00:00 132.6921932868 -0.0015020 2005-May-01 00:00 132.6921608985 -0.0022371 2005-Jun-01 00:00 132.6921140247 -0.0030016 2005-Jul-01 00:00 132.6920554990 -0.0037443 2005-Aug-01 00:00 132.6919822274 -0.0044254 2005-Sep-01 00:00 132.6918975090 -0.0050317 2005-Oct-01 00:00 132.6918053676 -0.0055953 2005-Nov-01 00:00 132.6917001390 -0.0061620 2005-Dec-01 00:00 132.6915882832 -0.0067652 2006-Jan-01 00:00 132.6914609491 -0.0074601 2006-Feb-01 00:00 132.6913211520 -0.0081521 2006-Mar-01 00:00 132.6911844813 -0.0087483 2006-Apr-01 00:00 132.6910224674 -0.0093281 2006-May-01 00:00 132.6908568374 -0.0097779 2006-Jun-01 00:00 132.6906780391 -0.0102001 2006-Jul-01 00:00 132.6904978074 -0.0106028 2006-Aug-01 00:00 132.6903041894 -0.0110306 2006-Sep-01 00:00 132.6901025100 -0.0115079 2006-Oct-01 00:00 132.6898991382 -0.0119570 2006-Nov-01 00:00 132.6896813096 -0.0123635 2006-Dec-01 00:00 132.6894638821 -0.0127302 2007-Jan-01 00:00 132.6892328987 -0.0130650 2007-Feb-01 00:00 132.6889960737 -0.0133935 2007-Mar-01 00:00 132.6887767461 -0.0137399 2007-Apr-01 00:00 132.6885273063 -0.0141240 2007-May-01 00:00 132.6882795761 -0.0144676 2007-Jun-01 00:00 132.6880176355 -0.0147814 2007-Jul-01 00:00 132.6877597023 -0.0149768 2007-Aug-01 00:00 132.6874903769 -0.0151032 2007-Sep-01 00:00 132.6872187410 -0.0152389 2007-Oct-01 00:00 132.6869534797 -0.0153852 2007-Nov-01 00:00 132.6866762044 -0.0156010 2007-Dec-01 00:00 132.6864034731 -0.0158770 2008-Jan-01 00:00 132.6861168252 -0.0161338 2008-Feb-01 00:00 132.6858260761 -0.0163395 2008-Mar-01 00:00 132.6855511174 -0.0164798 2008-Apr-01 00:00 132.6852553105 -0.0165594 2008-May-01 00:00 132.6849678347 -0.0166366 2008-Jun-01 00:00 132.6846689975 -0.0167475 2008-Jul-01 00:00 132.6843778866 -0.0168576 2008-Aug-01 00:00 132.6840750202 -0.0169787 2008-Sep-01 00:00 132.6837702101 -0.0170547 2008-Oct-01 00:00 132.6834745591 -0.0170619 2008-Nov-01 00:00 132.6831690503 -0.0170706 2008-Dec-01 00:00 132.6828730437 -0.0170986 2009-Jan-01 00:00 132.6825662862 -0.0171778 2009-Feb-01 00:00 132.6822573452 -0.0173460 2009-Mar-01 00:00 132.6819755459 -0.0175028 2009-Apr-01 00:00 132.6816609904 -0.0176267 2009-May-01 00:00 132.6813549087 -0.0176985 2009-Jun-01 00:00 132.6810380603 -0.0176867 2009-Jul-01 00:00 132.6807320181 -0.0176432 2009-Aug-01 00:00 132.6804160911 -0.0176584 2009-Sep-01 00:00 132.6800994418 -0.0177220 2009-Oct-01 00:00 132.6797914185 -0.0178408 2009-Nov-01 00:00 132.6794703704 -0.0180170 2009-Dec-01 00:00 132.6791569373 -0.0181534 2010-Jan-01 00:00 132.6788308701 -0.0182700 2010-Feb-01 00:00 132.6785025387 -0.0184037 2010-Mar-01 00:00 132.6782039591 -0.0185293 2010-Apr-01 00:00 132.6778706493 -0.0187222 2010-May-01 00:00 132.6775441236 -0.0189725 2010-Jun-01 00:00 132.6772022102 -0.0192209 2010-Jul-01 00:00 132.6768673036 -0.0194397 2010-Aug-01 00:00 132.6765174389 -0.0196303 2010-Sep-01 00:00 132.6761646081 -0.0197812 2010-Oct-01 00:00 132.6758203117 -0.0199768 2010-Nov-01 00:00 132.6754601221 -0.0202675 2010-Dec-01 00:00 132.6751058757 -0.0206344 2011-Jan-01 00:00 132.6747322918 -0.0211119 2011-Feb-01 00:00 132.6743498616 -0.0216013 2011-Mar-01 00:00 132.6739972522 -0.0220025 2011-Apr-01 00:00 132.6735995462 -0.0224288 2011-May-01 00:00 132.6732075793 -0.0228179 2011-Jun-01 00:00 132.6727953851 -0.0232396 2011-Jul-01 00:00 132.6723885688 -0.0237382 2011-Aug-01 00:00 132.6719585405 -0.0243056 2011-Sep-01 00:00 132.6715180668 -0.0248996 2011-Oct-01 00:00 132.6710813916 -0.0255011 2011-Nov-01 00:00 132.6706194488 -0.0260933 2011-Dec-01 00:00 132.6701623107 -0.0266778 2012-Jan-01 00:00 132.6696785698 -0.0273672 2012-Feb-01 00:00 132.6691819502 -0.0281208 2012-Mar-01 00:00 132.6687045966 -0.0288953 2012-Apr-01 00:00 132.6681793576 -0.0297784 2012-May-01 00:00 132.6676563615 -0.0305873 2012-Jun-01 00:00 132.6671017290 -0.0313707 2012-Jul-01 00:00 132.6665517720 -0.0321058 2012-Aug-01 00:00 132.6659703268 -0.0328504 2012-Sep-01 00:00 132.6653750353 -0.0336675 2012-Oct-01 00:00 132.6647840380 -0.0345558 2012-Nov-01 00:00 132.6641566137 -0.0355338 2012-Dec-01 00:00 132.6635323508 -0.0365285 2013-Jan-01 00:00 132.6628691228 -0.0375446 2013-Feb-01 00:00 132.6621881925 -0.0385140 2013-Mar-01 00:00 132.6615583127 -0.0393979 2013-Apr-01 00:00 132.6608441053 -0.0403916 2013-May-01 00:00 132.6601358083 -0.0413820 2013-Jun-01 00:00 132.6593853313 -0.0424704 2013-Jul-01 00:00 132.6586403585 -0.0435204 2013-Aug-01 00:00 132.6578518061 -0.0445584 2013-Sep-01 00:00 132.6570448690 -0.0455758 2013-Oct-01 00:00 132.6562468833 -0.0465269 2013-Nov-01 00:00 132.6554048722 -0.0475333 2013-Dec-01 00:00 132.6545720357 -0.0486073 2014-Jan-01 00:00 132.6536913220 -0.0497779 2014-Feb-01 00:00 132.6527893222 -0.0509851 2014-Mar-01 00:00 132.6519559281 -0.0520802 2014-Apr-01 00:00 132.6510133726 -0.0532016 2014-May-01 00:00 132.6500828598 -0.0542113 2014-Jun-01 00:00 132.6491030770 -0.0552404 2014-Jul-01 00:00 132.6481375120 -0.0562245 2014-Aug-01 00:00 132.6471214804 -0.0572888 2014-Sep-01 00:00 132.6460856466 -0.0584161 2014-Oct-01 00:00 132.6450640563 -0.0594936 2014-Nov-01 00:00 132.6439890089 -0.0605862 2014-Dec-01 00:00 132.6429301583 -0.0616160 2015-Jan-01 00:00 132.6418177147 -0.0626430 2015-Feb-01 00:00 132.6406867830 -0.0637033 2015-Mar-01 00:00 132.6396486277 -0.0646975 2015-Apr-01 00:00 132.6384804272 -0.0658096 2015-May-01 00:00 132.6373309268 -0.0668925 2015-Jun-01 00:00 132.6361237724 -0.0679476 2015-Jul-01 00:00 132.6349384329 -0.0688696 2015-Aug-01 00:00 132.6336972648 -0.0697789 2015-Sep-01 00:00 132.6324399522 -0.0706649 2015-Oct-01 00:00 132.6312079140 -0.0715481 2015-Nov-01 00:00 132.6299179415 -0.0725527 2015-Dec-01 00:00 132.6286520684 -0.0735553 2016-Jan-01 00:00 132.6273258802 -0.0745749 2016-Feb-01 00:00 132.6259817241 -0.0755637 2016-Mar-01 00:00 132.6247090411 -0.0764018 2016-Apr-01 00:00 132.6233337225 -0.0772385 2016-May-01 00:00 132.6219884515 -0.0780607 2016-Jun-01 00:00 132.6205834377 -0.0789035 2016-Jul-01 00:00 132.6192092657 -0.0797301 2016-Aug-01 00:00 132.6177739946 -0.0805905 2016-Sep-01 00:00 132.6163239334 -0.0813716 2016-Oct-01 00:00 132.6149078764 -0.0820693 2016-Nov-01 00:00 132.6134319783 -0.0827760 2016-Dec-01 00:00 132.6119918063 -0.0834533 2017-Jan-01 00:00 132.6104909360 -0.0842125 2017-Feb-01 00:00 132.6089758676 -0.0850293 2017-Mar-01 00:00 132.6075949982 -0.0857520 2017-Apr-01 00:00 132.6060529926 -0.0865082 2017-May-01 00:00 132.6045484968 -0.0871510 2017-Jun-01 00:00 132.6029831934 -0.0877048 2017-Jul-01 00:00 132.6014593188 -0.0882114 2017-Aug-01 00:00 132.5998752792 -0.0887384 2017-Sep-01 00:00 132.5982815686 -0.0892898 2017-Oct-01 00:00 132.5967293501 -0.0898797 2017-Nov-01 00:00 132.5951145824 -0.0904752 2017-Dec-01 00:00 132.5935422335 -0.0909961 2018-Jan-01 00:00 132.5919083591 -0.0915041 2018-Feb-01 00:00 132.5902659310 -0.0919580 2018-Mar-01 00:00 132.5887757178 -0.0923536 2018-Apr-01 00:00 132.5871180901 -0.0928349 2018-May-01 00:00 132.5855057444 -0.0932929 2018-Jun-01 00:00 132.5838315825 -0.0937311 2018-Jul-01 00:00 132.5822042030 -0.0941138 2018-Aug-01 00:00 132.5805164940 -0.0944006 2018-Sep-01 00:00 132.5788242691 -0.0946231 2018-Oct-01 00:00 132.5771826352 -0.0948572 2018-Nov-01 00:00 132.5754818587 -0.0951216 2018-Dec-01 00:00 132.5738309523 -0.0954409 2019-Jan-01 00:00 132.5721186010 -0.0958256 2019-Feb-01 00:00 132.5703998071 -0.0961623 2019-Mar-01 00:00 132.5688427714 -0.0964064 2019-Apr-01 00:00 132.5671148738 -0.0966075 2019-May-01 00:00 132.5654400873 -0.0967245 2019-Jun-01 00:00 132.5637075014 -0.0968438 2019-Jul-01 00:00 132.5620283854 -0.0969874 2019-Aug-01 00:00 132.5602905862 -0.0971392 2019-Sep-01 00:00 132.5585499419 -0.0972992 2019-Oct-01 00:00 132.5568628960 -0.0974092 2019-Nov-01 00:00 132.5551182296 -0.0974552 2019-Dec-01 00:00 132.5534292107 -0.0974986 2020-Jan-01 00:00 132.5516830251 -0.0975532 2020-Feb-01 00:00 132.5499356955 -0.0976416 2020-Mar-01 00:00 132.5482992328 -0.0977855 2020-Apr-01 00:00 132.5465473295 -0.0979201 2020-May-01 00:00 132.5448502331 -0.0979818 2020-Jun-01 00:00 132.5430959810 -0.0979841 2020-Jul-01 00:00 132.5413990077 -0.0978980 2020-Aug-01 00:00 132.5396473466 -0.0977794 2020-Sep-01 00:00 132.5378972153 -0.0977235 2020-Oct-01 00:00 132.5362040499 -0.0977133 2020-Nov-01 00:00 132.5344541262 -0.0977569 2020-Dec-01 00:00 132.5327594606 -0.0978361 2021-Jan-01 00:00 132.5310073658 -0.0978640 2021-Feb-01 00:00 132.5292553225 -0.0978490 2021-Mar-01 00:00 132.5276731393 -0.0978302 2021-Apr-01 00:00 132.5259220533 -0.0977955 2021-May-01 00:00 132.5242278301 -0.0978009 2021-Jun-01 00:00 132.5224764472 -0.0978552 2021-Jul-01 00:00 132.5207807309 -0.0978878 2021-Aug-01 00:00 132.5190281018 -0.0978950 2021-Sep-01 00:00 132.5172755239 -0.0978607 2021-Oct-01 00:00 132.5155803980 -0.0977937 2021-Nov-01 00:00 132.5138296320 -0.0977800 2021-Dec-01 00:00 132.5121348323 -0.0978447 2022-Jan-01 00:00 132.5103817581 -0.0979869 2022-Feb-01 00:00 132.5086255177 -0.0982063 2022-Mar-01 00:00 132.5070359041 -0.0983891 2022-Apr-01 00:00 132.5052731494 -0.0985263 2022-May-01 00:00 132.5035652934 -0.0986299 2022-Jun-01 00:00 132.5017988641 -0.0987070 2022-Jul-01 00:00 132.5000879575 -0.0988037 2022-Aug-01 00:00 132.4983173670 -0.0990022 2022-Sep-01 00:00 132.4965425627 -0.0992553 2022-Oct-01 00:00 132.4948203552 -0.0995288 2022-Nov-01 00:00 132.4930354108 -0.0998409 2022-Dec-01 00:00 132.4913029636 -0.1001163 2023-Jan-01 00:00 132.4895077912 -0.1004144 2023-Feb-01 00:00 132.4877066480 -0.1007918 2023-Mar-01 00:00 132.4860737162 -0.1011786 2023-Apr-01 00:00 132.4842580636 -0.1016710 2023-May-01 00:00 132.4824920489 -0.1021955 2023-Jun-01 00:00 132.4806579791 -0.1026908 2023-Jul-01 00:00 132.4788750118 -0.1031286 2023-Aug-01 00:00 132.4770245958 -0.1035720 2023-Sep-01 00:00 132.4751662296 -0.1040206 2023-Oct-01 00:00 132.4733594666 -0.1045435 2023-Nov-01 00:00 132.4714817891 -0.1051986 2023-Dec-01 00:00 132.4696529137 -0.1058993 2024-Jan-01 00:00 132.4677499202 -0.1066755 2024-Feb-01 00:00 132.4658330894 -0.1074352 2024-Mar-01 00:00 132.4640281159 -0.1081014 2024-Apr-01 00:00 132.4620864306 -0.1088241 2024-May-01 00:00 132.4601948641 -0.1095440 2024-Jun-01 00:00 132.4582267999 -0.1103309 2024-Jul-01 00:00 132.4563080938 -0.1111709 2024-Aug-01 00:00 132.4543098270 -0.1120482 2024-Sep-01 00:00 132.4522959932 -0.1128981 2024-Oct-01 00:00 132.4503325603 -0.1137247 2024-Nov-01 00:00 132.4482887222 -0.1145663 2024-Dec-01 00:00 132.4462962013 -0.1154239 2025-Jan-01 00:00 132.4442207073 -0.1164246 2025-Feb-01 00:00 132.4421267826 -0.1174875 2025-Mar-01 00:00 132.4402189578 -0.1184758 2025-Apr-01 00:00 132.4380880147 -0.1195721 2025-May-01 00:00 132.4360078729 -0.1205485 2025-Jun-01 00:00 132.4338412474 -0.1214964 2025-Jul-01 00:00 132.4317282493 -0.1224186 2025-Aug-01 00:00 132.4295279196 -0.1233839 2025-Sep-01 00:00 132.4273096399 -0.1244236 2025-Oct-01 00:00 132.4251443125 -0.1255043 2025-Nov-01 00:00 132.4228870479 -0.1266218 2025-Dec-01 00:00 132.4206836646 -0.1276962 2026-Jan-01 00:00 132.4183874472 -0.1287820 2026-Feb-01 00:00 132.4160722705 -0.1298354 2026-Mar-01 00:00 132.4139648947 -0.1308176 2026-Apr-01 00:00 132.4116128463 -0.1319442 2026-May-01 00:00 132.4093173849 -0.1330481 2026-Jun-01 00:00 132.4069251904 -0.1342024 2026-Jul-01 00:00 132.4045907360 -0.1352648 2026-Aug-01 00:00 132.4021598001 -0.1362790 2026-Sep-01 00:00 132.3997108896 -0.1372743 2026-Oct-01 00:00 132.3973239333 -0.1382352 2026-Nov-01 00:00 132.3948395307 -0.1392761 2026-Dec-01 00:00 132.3924166738 -0.1403844 2027-Jan-01 00:00 132.3898925690 -0.1415589 2027-Feb-01 00:00 132.3873477037 -0.1427104 2027-Mar-01 00:00 132.3850317219 -0.1437196 2027-Apr-01 00:00 132.3824494869 -0.1447410 2027-May-01 00:00 132.3799337664 -0.1456741 2027-Jun-01 00:00 132.3773170226 -0.1466601 2027-Jul-01 00:00 132.3747677832 -0.1476195 2027-Aug-01 00:00 132.3721157970 -0.1486360 2027-Sep-01 00:00 132.3694451903 -0.1496696 2027-Oct-01 00:00 132.3668435444 -0.1506068 2027-Nov-01 00:00 132.3641385623 -0.1515294 2027-Dec-01 00:00 132.3615051255 -0.1524165 2028-Jan-01 00:00 132.3587679559 -0.1533304 2028-Feb-01 00:00 132.3560141526 -0.1543017 2028-Mar-01 00:00 132.3534218849 -0.1552529 2028-Apr-01 00:00 132.3506335134 -0.1562431 2028-May-01 00:00 132.3479186873 -0.1571544 2028-Jun-01 00:00 132.3450974443 -0.1580034 2028-Jul-01 00:00 132.3423535654 -0.1587306 2028-Aug-01 00:00 132.3395051262 -0.1594713 2028-Sep-01 00:00 132.3366430856 -0.1602302 2028-Oct-01 00:00 132.3338600331 -0.1610028 2028-Nov-01 00:00 132.3309695045 -0.1618685 2028-Dec-01 00:00 132.3281574472 -0.1626916 2029-Jan-01 00:00 132.3252372674 -0.1634827 2029-Feb-01 00:00 132.3223034166 -0.1642377 2029-Mar-01 00:00 132.3196424509 -0.1648645 2029-Apr-01 00:00 132.3166849208 -0.1655382 2029-May-01 00:00 132.3138110387 -0.1662300 2029-Jun-01 00:00 132.3108287771 -0.1669342 2029-Jul-01 00:00 132.3079308747 -0.1675850 2029-Aug-01 00:00 132.3049246540 -0.1682194 2029-Sep-01 00:00 132.3019078334 -0.1687545 2029-Oct-01 00:00 132.2989796174 -0.1692266 2029-Nov-01 00:00 132.2959448722 -0.1697444 2029-Dec-01 00:00 132.2929990313 -0.1702730 2030-Jan-01 00:00 132.2899449593 -0.1708824 $$EOE ******************************************************************************* Column meaning: TIME Times PRIOR to 1962 are UT1, a mean-solar time closely related to the prior but now-deprecated GMT. Times AFTER 1962 are in UTC, the current civil or "wall-clock" time-scale. UTC is kept within 0.9 seconds of UT1 using integer leap-seconds for 1972 and later years. Conversion from the internal Barycentric Dynamical Time (TDB) of solar system dynamics to the non-uniform civil UT time-scale requested for output has not been determined for UTC times after the next July or January 1st. Therefore, the last known leap-second is used as a constant over future intervals. Time tags refer to the UT time-scale conversion from TDB on Earth regardless of observer location within the solar system, although clock rates may differ due to the local gravity field and no analog to "UT" may be defined for that location. Any 'b' symbol in the 1st-column denotes a B.C. date. First-column blank (" ") denotes an A.D. date. CALENDAR SYSTEM Mixed calendar mode was active such that calendar dates after AD 1582-Oct-15 (if any) are in the modern Gregorian system. Dates prior to 1582-Oct-5 (if any) are in the Julian calendar system, which is automatically extended for dates prior to its adoption on 45-Jan-1 BC. The Julian calendar is useful for matching historical dates. The Gregorian calendar more accurately corresponds to the Earth's orbital motion and seasons. A "Gregorian-only" calendar mode is available if such physical events are the primary interest. NOTE: "n.a." in output means quantity "not available" at the print-time. 'r rdot' = The Sun's apparent range ("r", light-time aberrated) and range-rate ("rdot") relative to the target center, as seen by the observer. A positive "rdot" means the target center was moving away from the Sun, negative means moving toward the Sun. Units: AU and KM/S Computations by ... Solar System Dynamics Group, Horizons On-Line Ephemeris System 4800 Oak Grove Drive, Jet Propulsion Laboratory Pasadena, CA 91109 USA General site: https://ssd.jpl.nasa.gov/ Mailing list: https://ssd.jpl.nasa.gov/email_list.html System news : https://ssd.jpl.nasa.gov/horizons/news.html User Guide : https://ssd.jpl.nasa.gov/horizons/manual.html Connect : browser https://ssd.jpl.nasa.gov/horizons/app.html#/x API https://ssd-api.jpl.nasa.gov/doc/horizons.html command-line telnet ssd.jpl.nasa.gov 6775 e-mail/batch https://ssd.jpl.nasa.gov/ftp/ssd/horizons_batch.txt scripts https://ssd.jpl.nasa.gov/ftp/ssd/SCRIPTS Author : Jon.D.Giorgini@jpl.nasa.gov ******************************************************************************* !$$SOF COMMAND = '2018 AG37' QUANTITIES = '19' START_TIME = '1990-01-01' STEP_SIZE = '1 month' STOP_TIME = '2030-01-01'